Tracking 27422 objects as of 30-May-2023
HD Live streaming from Space Station
objects crossing your sky now

BREEZE-M DEB

Track BREEZE-M DEB now!


NORAD ID: 43414
Int'l Code: 2014-007D
Perigee: 8,132.1 km
Apogee: 34,312.3 km
Inclination: 12.6 °
Period: 760.3 minutes
Semi major axis: 27593 km
RCS: Unknown
Launch date: February 14, 2014
Source: Commonwealth of Independent States (former USSR) (CIS)
Launch site: TYURATAM MISSILE AND SPACE COMPLEX (TTMTR)

Note: This is SATELLITE DEBRIS
Your satellite tracking list
Your tracking list is empty




NASA's NSSDC Master Catalog

Two Line Element Set (TLE):
1 43414U 14007D   23147.09073073 -.00000096  00000-0  00000-0 0  9990
2 43414  12.6170 137.2321 4743945 281.6425  30.4585  1.89408524 59592
Source of the keplerian elements: AFSPC